SCP
0 0 0 0 0 0 0 0 0 0 0 0 0 0 0 0 0 0 0 0 0 0 0 0 0 0 0 0 0 0 0 0 0 0 0 0 0 0 0 0 0 0 0
0 0 0 0 0 0 0 0 0 0 0 0 0 0 0 0 0 0 0 0 0 0 0 0 0 0 0 0 0 0 0 0 0 0 0 0 0 0 0 0 0 0 0
0 0 0 0 0 0 0 0 0 0 0 0 0 0 0 0 0 0 0 0 0 0 0 0 0 0 0 0 0 0 0 0 0 0 0 0 0 0 0 0 0 0 0
0 0 0 0 0 0 0 0 0 0 0 0 0 0 0 0 0 0 0 0 0 0 0 0 0 0 0 0 0 0 0 0 0 0 0 0 0 0 0 0 0 0 0
0 0 0 0 0 0 0 0 0 0 0 0 0 0 0 0 0 0 0 0 0 0 0 0 0 0 0 0 0 0 0 0 0 0 0 0 0 0 0 0 0 0 0
0 0 0 0 0 0 0 0 0 0 0 0 0 0 0 0 0 0 0 0 0 0 0 0 0 0 0 0 0 0 0 0 0 0 0 0 0 0 0 0 0 0 0
0 0 0 0 0 0 0 0 0 0 0 0 0 0 0 0 0 0 0 0 0 0 0 0 0 0 0 0 0 0 0 0 0 0 0 0 0 0 0 0 0 0 0
0 0 0 0 0 0 0 0 0 0 0 0 0 0 0 0 0 0 0 0 0 0 0 0 0 0 0 0 0 0 0 0 0 0 0 0 0 0 0 0 0 0 0
0 0 0 0 0 0 0 0 0 0 0 0 0 0 0 0 0 0 0 0 0 0 0 0 0 0 0 0 0 0 0 0 0 0 0 0 0 0 0 0 0 0 0
0 0 0 0 0 0 0 0 0 0 0 0 0 0 0 0 0 0 0 0 0 0 0 0 0 0 0 0 0 0 0 0 0 0 0 0 0 0 0 0 0 0 0
0 0 0 0 0 0 0 0 0 0 0 0 0 0 0 0 0 0 0 0 0 0 0 0 0 0 0 0 0 0 0 0 0 0 0 0 0 0 0 0 0 0 0
0 0 0 0 0 0 0 0 0 0 0 0 0 0 0 0 0 0 0 0 0 0 0 0 0 0 0 0 0 0 0 0 0 0 0 0 0 0 0 0 0 0 0
0 0 0 0 0 0 0 0 0 0 0 0 0 0 0 0 0 0 0 0 0 0 0 0 0 0 0 0 0 0 0 0 0 0 0 0 0 0 0 0 0 0 0
0 0 0 0 0 0 0 0 0 0 0 0 0 0 0 0 0 0 0 0 0 0 0 0 0 0 0 0 0 0 0 0 0 0 0 0 0 0 0 0 0 0 0
0 0 0 0 0 0 0 0 0 0 0 0 0 0 0 0 0 0 0 0 0 0 0 0 0 0 0 0 0 0 0 0 0 0 0 0 0 0 0 0 0 0 0
0 0 0 0 0 0 0 0 0 0 0 0 0 0 0 0 0 0 0 0 0 0 0 0 1 1 1 0 0 0 0 0 0 0 0 0 0 0 0 0 0 0 0
0 0 0 0 0 0 0 0 0 0 0 0 0 0 0 0 0 0 0 0 0 0 0 0 0 0 1 1 0 0 0 0 0 0 0 0 0 0 0 0 0 0 0
0 0 0 0 0 0 0 0 0 0 0 0 0 0 0 0 0 0 0 0 0 0 0 0 0 0 0 0 0 0 0 0 0 0 0 0 0 0 0 0 0 0 0
0 0 0 0 0 0 0 0 0 0 0 0 0 0 0 0 0 0 0 0 0 0 0 0 0 0 0 0 0 0 0 0 0 0 0 0 0 0 0 0 0 0 0
0 0 0 0 0 0 0 0 0 0 0 0 0 0 0 0 0 0 0 0 0 0 0 0 0 0 0 0 0 0 0 0 0 0 0 0 0 0 0 0 0 0 0
0 0 0 0 0 0 0 0 0 0 0 0 0 0 0 0 0 0 0 0 0 0 0 0 0 0 0 0 0 0 0 0 0 0 0 0 0 0 0 0 0 0 0
0 0 1 0 0 0 0 0 0 0 0 0 0 0 0 0 0 0 0 0 0 0 0 0 0 0 0 0 0 0 0 0 0 0 0 0 0 0 0 0 0 0 0
0 0 0 0 0 0 0 0 0 0 0 0 0 0 0 0 0 0 0 0 0 0 0 0 0 0 0 1 1 1 0 0 0 0 0 0 0 0 0 0 0 0 0
0 0 0 0 0 0 0 0 0 0 0 0 0 0 0 0 0 0 0 0 0 0 0 0 0 0 0 1 1 1 1 1 0 0 0 0 0 0 0 0 0 0 0
0 0 0 0 0 0 0 0 0 0 0 0 0 0 0 0 0 0 0 0 0 0 0 0 0 0 0 0 0 1 1 1 0 0 0 0 0 0 0 0 0 0 0
0 0 0 0 0 0 0 0 0 0 0 0 0 0 0 0 0 0 0 0 0 0 0 0 0 0 0 0 0 0 1 1 0 0 1 1 1 1 0 0 0 0 0
Wind_Speed
1 1 1 1 1 1 2 1 1 1 0 1 0 0 1 1 1 1 3 6 5 4 3 3 4 4 4 4 5 6 6 6 5 5 5 6 6 6 6 6 6 6 6
0 1 2 1 1 1 1 0 1 1 0 1 1 1 1 0 1 0 1 5 6 4 3 3 3 4 4 4 5 6 6 6 5 5 6 6 6 6 6 6 6 6 6
0 1 1 1 1 1 2 1 1 1 1 1 0 0 0 0 1 0 0 1 4 6 5 4 3 4 4 4 5 6 6 6 6 6 6 6 6 6 6 6 6 6 6
0 1 0 1 1 0 1 1 1 0 0 0 0 0 0 1 1 1 1 1 1 2 6 5 4 4 4 5 5 6 6 6 6 6 6 6 6 6 6 7 7 6 6
1 1 0 1 1 0 0 1 1 1 0 1 1 1 1 1 1 1 1 1 1 1 1 7 6 4 5 5 5 5 5 6 6 5 6 6 6 6 6 7 7 7 7
1 1 1 1 2 0 0 1 1 1 1 1 2 0 1 0 0 1 1 1 1 1 1 2 4 5 6 5 5 5 5 5 6 6 6 6 6 6 7 7 7 7 7
1 1 1 0 2 0 1 1 2 2 2 1 2 1 2 2 1 0 0 0 1 1 1 1 1 1 4 7 6 5 5 5 6 6 6 7 7 7 7 7 7 7 7
2 2 1 1 0 1 1 1 2 3 1 1 2 2 1 3 2 1 1 1 1 1 1 1 1 1 2 2 5 6 5 5 6 6 6 6 7 8 8 8 8 8 7
2 1 1 2 1 3 1 1 2 2 2 1 1 2 2 1 0 2 1 1 1 0 1 1 2 1 2 1 2 6 5 4 5 6 6 6 6 7 8 9 9 9 8
2 2 2 2 2 2 1 3 1 2 3 2 0 1 2 2 3 1 2 2 1 1 1 1 1 2 2 1 1 2 5 4 4 5 5 6 6 6 7 8 9 9 9
3 2 2 2 2 2 2 2 1 3 2 3 2 1 1 2 3 3 1 1 1 1 2 2 1 1 1 2 1 2 4 3 3 4 4 4 5 6 7 8 9 9 9
3 3 3 2 3 2 2 2 2 2 2 2 3 2 2 2 2 2 2 2 2 1 1 1 2 2 2 2 2 4 3 3 3 3 3 3 4 5 6 7 8 8 9
2 2 2 2 2 2 3 3 3 3 2 3 3 3 2 2 2 2 3 3 3 2 2 2 2 2 2 2 2 4 4 4 3 3 3 3 4 4 4 5 6 6 6
2 1 2 3 3 3 3 2 3 3 2 3 3 3 3 2 2 2 3 3 4 3 2 2 1 2 1 2 2 5 4 5 4 4 4 4 4 4 4 5 5 5 5
3 3 3 3 3 3 3 3 2 3 3 3 3 3 3 2 2 3 3 3 4 4 3 2 2 2 2 2 2 3 3 5 5 5 4 4 4 4 5 4 4 4 4
3 3 3 3 3 3 3 3 3 3 3 3 2 3 3 3 2 2 3 3 4 4 4 2 2 2 2 2 3 3 3 6 6 6 5 5 4 5 5 5 5 5 4
4 4 4 4 4 4 3 3 4 4 4 3 3 3 4 4 3 3 3 3 3 4 4 3 2 1 2 4 2 4 4 5 4 7 6 6 6 6 6 5 5 5 5
4 4 4 4 4 4 4 4 5 4 4 4 4 4 4 3 4 4 3 4 3 3 4 4 2 2 3 4 3 4 4 4 3 7 8 7 7 6 6 6 6 6 5
4 4 4 5 4 4 4 5 5 5 5 5 4 5 5 4 5 4 4 4 4 4 4 4 4 2 3 3 3 5 4 4 5 5 9 10 8 8 7 7 7 6 6
4 4 4 5 5 5 5 5 5 5 5 5 5 5 5 5 5 5 4 5 4 4 4 5 4 3 3 3 3 4 4 4 4 4 3 5 8 10 10 9 8 8 8
4 4 4 4 4 4 4 4 5 5 5 5 5 5 5 4 4 5 5 4 4 5 5 5 4 4 3 2 4 4 4 4 4 4 4 4 5 6 8 10 10 9 8
4 4 4 3 3 2 1 1 4 4 4 5 5 5 5 5 5 6 6 6 6 6 6 5 5 5 4 5 4 5 4 4 4 2 4 5 4 5 5 4 5 7 7
4 4 4 4 4 2 1 2 3 4 4 3 3 4 4 2 4 5 6 8 8 7 7 7 7 7 5 5 5 6 5 6 5 3 4 6 4 5 4 3 7 7 7
3 4 5 5 4 3 3 3 4 6 4 4 4 4 5 4 3 5 6 6 6 6 6 7 7 7 6 5 5 7 6 7 7 5 5 6 4 4 4 3 8 8 8
4 4 4 4 4 3 4 4 5 5 4 5 5 4 5 5 2 4 7 6 6 5 5 5 5 6 5 4 5 5 6 6 6 5 5 6 5 4 4 4 5 9 9
4 4 3 4 4 3 4 4 5 5 4 4 4 5 4 5 3 4 6 6 7 6 6 5 6 8 8 8 8 8 7 7 6 5 4 5 5 4 4 4 3 5 6
Wind_Direction
159 144 118 130 160 137 164 157 102 96 79 161 247 317 358 22 54 65 125 154 183 203 222 213 201 203 199 195 192 186 180 183 182 186 189 191 189 188 183 179 182 184 186
106 168 157 154 146 166 79 121 111 157 190 38 319 4 318 29 93 172 163 154 172 182 197 199 194 195 193 190 187 181 184 186 185 185 189 189 187 184 182 182 186 185 185
138 232 147 180 123 135 146 177 178 197 198 174 140 64 108 8 74 122 252 223 168 169 178 188 193 189 194 189 181 178 179 182 183 181 179 177 179 182 181 180 182 184 186
207 246 146 106 89 171 150 154 218 234 46 265 97 334 55 117 159 196 190 200 221 162 162 169 184 187 191 190 188 185 183 184 182 183 185 184 183 183 183 183 185 187 189
191 236 110 65 236 234 246 274 86 294 264 289 244 186 221 186 175 169 161 190 172 198 169 151 170 183 187 189 191 190 188 186 181 184 188 190 190 184 182 182 187 191 194
185 267 180 125 277 257 302 341 333 282 290 289 296 348 259 277 267 115 218 156 151 171 198 151 175 175 179 185 193 196 197 193 190 192 193 194 193 187 183 184 187 190 194
196 244 301 150 276 342 319 295 278 230 250 291 274 252 174 166 157 169 200 82 110 89 62 143 220 204 169 175 187 194 200 201 200 199 198 197 197 194 191 191 191 192 196
243 212 248 264 265 248 231 266 263 285 285 240 292 281 225 167 182 149 180 167 135 135 159 176 176 206 242 191 144 171 189 202 207 206 206 204 205 202 200 197 198 200 203
233 283 258 281 275 262 241 265 259 263 294 290 316 309 306 351 341 150 147 132 162 233 238 175 169 173 224 221 175 163 179 201 215 215 213 211 208 206 206 204 206 208 210
224 231 246 245 265 279 260 256 206 271 276 283 204 278 314 335 303 254 176 155 188 226 261 256 184 171 203 221 139 115 167 192 211 222 223 219 212 208 209 208 210 212 210
223 230 230 246 251 264 281 290 276 281 276 289 294 272 253 233 260 279 291 289 242 226 221 220 225 211 192 209 196 114 138 178 207 219 226 227 225 219 216 215 218 220 218
221 220 222 231 244 257 246 254 254 239 276 292 293 293 283 287 290 283 279 273 279 257 239 229 222 213 205 207 161 111 150 182 211 221 223 224 228 228 225 219 223 224 224
223 213 242 239 251 245 246 247 237 260 250 250 261 277 292 292 294 278 275 283 285 265 228 226 225 222 216 219 155 152 173 182 204 218 222 223 222 221 219 222 227 229 229
251 224 233 237 239 241 243 237 246 237 232 243 257 278 279 276 268 268 277 285 281 269 238 231 222 219 242 234 135 202 181 173 195 213 216 215 214 207 209 215 221 228 231
239 219 225 228 225 226 241 243 242 251 243 243 243 234 255 259 260 271 274 279 286 285 279 234 232 218 230 220 169 220 215 167 196 211 213 216 220 217 211 210 213 218 222
242 232 225 218 219 222 229 238 232 222 232 243 265 285 280 273 271 261 264 271 274 277 285 294 270 247 259 240 186 238 230 172 195 207 208 211 217 219 215 213 211 213 214
227 228 224 220 221 223 227 231 243 233 229 237 245 241 250 275 278 265 256 264 267 271 272 279 276 270 257 269 238 244 233 230 197 188 199 205 211 214 215 216 215 211 209
222 225 226 225 228 226 229 234 241 241 238 238 244 251 254 249 249 266 269 266 268 271 267 274 278 251 239 248 246 254 251 244 238 172 190 202 208 211 211 213 216 215 214
218 225 226 228 231 234 235 236 241 244 244 245 244 247 252 257 260 261 261 265 263 256 259 263 265 265 248 245 248 250 253 263 256 184 190 198 204 210 213 213 215 215 216
217 222 225 230 232 234 236 239 240 241 244 244 246 249 253 256 259 263 254 255 261 262 254 257 259 251 248 239 252 259 251 235 253 248 226 216 202 208 211 210 213 215 215
216 215 221 229 236 235 238 241 243 239 241 246 247 250 250 255 281 280 281 270 257 257 256 257 260 255 251 255 259 263 264 255 242 258 255 237 214 218 208 206 210 217 218
217 216 215 219 230 241 158 244 262 253 253 256 259 259 246 226 232 236 261 276 281 268 269 269 264 264 261 259 267 271 269 264 259 232 262 262 251 244 232 217 171 188 208
211 214 217 216 220 218 191 227 253 257 251 258 263 268 272 258 245 250 231 229 238 243 253 268 272 274 273 266 268 263 262 270 276 278 264 265 254 251 245 173 157 182 201
229 224 224 223 223 204 182 220 247 241 246 247 254 260 268 272 277 278 266 254 249 236 232 241 261 271 277 283 263 264 267 257 255 247 241 263 258 256 251 198 160 181 196
240 236 233 227 226 208 186 211 243 241 236 241 249 254 262 261 266 275 264 263 263 254 220 222 251 267 283 273 271 264 255 254 255 240 220 250 261 265 258 232 176 182 195
248 248 239 233 229 227 187 201 235 251 246 248 240 236 230 254 253 249 258 263 265 270 271 239 230 238 245 238 230 246 255 257 261 257 216 238 256 258 258 238 213 195 199